Погода в Сенда

Россия / Республика Марий Эл     56°47′07″N   49°54′49″E
темп.,
°C
ветер,
м/с
пор.,
м/с
влажн.,
%
обл.,
%
осадки,
мм/ч
давл.,
гПа
погр.,
м
19 января, ср
ср1900:000ююз61397100 1.2 1006743
03:00−1юз41098100 2.6 1008635
06:00−6сз359797 1.3 1010216
09:00−7зсз2596100 1.9 1012237
12:00−7з2494100 0.6 1013265
15:00−8з2496100 1.2 1014262
18:00−14зсз239950 0.1 101547
21:00−20зюз2210074 0.1 101718
20 января, чт
чт2000:00−21ююз2210092 0.0 101728
03:00−18ююз379969 0.0 101883
06:00−16ююз3995100 0.0 1018148
09:00−13ююз41195100 0.0 1017225
12:00−9ююз51393100 0.0 1017391
15:00−8ююз61489100 0.0 1017437
18:00−9ююз6149179 0.0 1018352
21:00−10ююз6169177 0.0 1018382
21 января, пт
пт2100:00−9ююз61694100 0.0 1019411
03:00−8ююз51594100 0.1 1020422
06:00−7ююз4109293 0.1 1020331
09:00−11ю4119683 0.1 1022221
12:00−9ю4119589 0.0 1022298
15:00−10ююв4119467 0.0 1023269
18:00−13ююв4119667 0.0 1023199
21:00−13ююв4129553 0.0 1024229
22 января, сб
сб2200:00−13юв4109343 0.0 1025195
03:00−13юв41288100 0.0 1025229
06:00−13юв41285100 0.0 1025227
09:00−14юв51286100 0.0 1026228
12:00−11юв4118773 0.0 1027277
15:00−12вюв4990100 0.0 1028204
18:00−12юв41090100 0.0 1029228
21:00−11юв41091100 0.0 1029220
23 января, вс
вс2300:00−11юв41091100 0.0 1030231
03:00−10юв41093100 0.0 1031251
06:00−11юв4892100 0.0 1032174
09:00−11юв41089100 0.0 1034223
12:00−8юв4987100 0.0 1035279
15:00−8юв4988100 0.0 1036291
18:00−10ююв3890100 0.0 1037168
21:00−10ююв3790100 0.0 1037152